EW8485 Weather Reports


Display with metric or nautical units.
time (UTC)temp
F
wind
direction
speed
MPH
gust
MPH
rain 1hr
in
rain 24hr
in
rain mn
in
humidity
%
barometer
mb
20220122182315 51 330 0.0 4.0 0.00 0.00 0.00 35 1027.4
20220122181817 50 357 0.0 1.0 0.00 0.00 0.00 36 1027.5
20220122181317 50 20 0.0 4.0 0.00 0.00 0.00 35 1027.7
20220122180816 49 51 0.0 4.0 0.00 0.00 0.00 35 1027.8
20220122180317 50 355 0.0 3.0 0.00 0.00 0.00 35 1027.8
20220122175816 49 27 0.0 3.0 0.00 0.00 0.00 37 1027.9
20220122175312 49 5 0.0 3.0 0.00 0.00 0.00 38 1027.9
20220122174812 49 347 0.0 3.0 0.00 0.00 0.00 39 1028.0
20220122174312 49 63 0.0 2.0 0.00 0.00 0.00 39 1028.1
20220122173813 49 15 0.0 0.0 0.00 0.00 0.00 39 1028.2
20220122173312 47 348 0.0 8.0 0.00 0.00 0.00 40 1028.3
20220122172812 47 57 0.0 8.0 0.00 0.00 0.00 40 1028.4
20220122172307 46 47 0.0 4.0 0.00 0.00 0.00 38 1028.5
20220122171807 46 41 0.0 3.0 0.00 0.00 0.00 38 1028.5
20220122171308 46 39 0.0 6.0 0.00 0.00 0.00 38 1028.6
20220122170807 46 75 0.0 6.0 0.00 0.00 0.00 38 1028.7
20220122170307 46 344 0.0 2.0 0.00 0.00 0.00 40 1028.8
20220122165808 45 19 0.0 2.0 0.00 0.00 0.00 41 1028.8
20220122165307 45 25 0.0 2.0 0.00 0.00 0.00 39 1028.8
20220122164805 44 63 0.0 4.0 0.00 0.00 0.00 39 1028.9
20220122164306 44 53 0.0 7.0 0.00 0.00 0.00 40 1028.9
20220122163806 44 56 0.0 7.0 0.00 0.00 0.00 40 1028.8
20220122163306 44 302 0.0 1.0 0.00 0.00 0.00 42 1028.8
20220122162808 43 20 0.0 1.0 0.00 0.00 0.00 42 1028.9
20220122162308 43 82 0.0 6.0 0.00 0.00 0.00 42 1028.7
20220122161808 43 32 0.0 6.0 0.00 0.00 0.00 41 1028.8
20220122161300 42 34 0.0 7.0 0.00 0.00 0.00 42 1028.9
20220122160757 42 15 0.0 7.0 0.00 0.00 0.00 41 1028.9
20220122160258 42 27 0.0 3.0 0.00 0.00 0.00 42 1028.8
20220122155759 41 45 0.0 1.0 0.00 0.00 0.00 42 1028.8
20220122155259 41 334 0.0 4.0 0.00 0.00 0.00 41 1028.8
20220122154755 41 58 0.0 4.0 0.00 0.00 0.00 42 1028.8
20220122154249 40 309 0.0 0.0 0.00 0.00 0.00 45 1028.8
20220122153747 40 31 0.0 0.0 0.00 0.00 0.00 43 1028.9
20220122153247 40 21 0.0 0.0 0.00 0.00 0.00 45 1028.8
20220122152748 40 41 0.0 2.0 0.00 0.00 0.00 46 1028.8
20220122152248 39 44 0.0 2.0 0.00 0.00 0.00 46 1028.8
20220122151749 39 10 0.0 1.0 0.00 0.00 0.00 46 1028.8
20220122151243 39 55 0.0 2.0 0.00 0.00 0.00 47 1028.7
20220122150745 38 25 0.0 2.0 0.00 0.00 0.00 47 1028.7
20220122150244 38 56 0.0 1.0 0.00 0.00 0.00 48 1028.6
20220122145745 37 30 0.0 4.0 0.00 0.00 0.00 50 1028.5
20220122145243 37 158 0.0 4.0 0.00 0.00 0.00 50 1028.5
20220122144742 37 0 0.0 5.0 0.00 0.00 0.00 51 1028.5
20220122144235 36 40 0.0 5.0 0.00 0.00 0.00 52 1028.5
20220122143736 36 33 0.0 2.0 0.00 0.00 0.00 53 1028.5
20220122143237 36 46 0.0 3.0 0.00 0.00 0.00 54 1028.5
20220122142739 35 48 0.0 3.0 0.00 0.00 0.00 55 1028.3
20220122142235 35 51 0.0 2.0 0.00 0.00 0.00 55 1028.2
20220122141736 35 45 0.0 6.0 0.00 0.00 0.00 56 1028.1
20220122141235 35 321 0.0 6.0 0.00 0.00 0.00 57 1028.0
20220122140736 34 50 0.0 5.0 0.00 0.00 0.00 57 1027.9
20220122140233 34 335 0.0 4.0 0.00 0.00 0.00 58 1027.9
20220122135731 34 34 0.0 1.0 0.00 0.00 0.00 59 1027.9
20220122135232 34 15 0.0 1.0 0.00 0.00 0.00 59 1027.9
20220122134731 33 36 0.0 1.0 0.00 0.00 0.00 60 1027.9
20220122134231 33 56 0.0 0.0 0.00 0.00 0.00 60 1027.9
20220122133731 33 38 0.0 0.0 0.00 0.00 0.00 61 1027.8
20220122133230 33 288 0.0 1.0 0.00 0.00 0.00 62 1027.8
20220122132726 33 56 0.0 1.0 0.00 0.00 0.00 62 1027.8
20220122132226 33 18 0.0 0.0 0.00 0.00 0.00 63 1027.7
20220122131727 33 319 0.0 0.0 0.00 0.00 0.00 63 1027.7
20220122131226 32 33 0.0 0.0 0.00 0.00 0.00 63 1027.6
20220122130725 33 46 0.0 0.0 0.00 0.00 0.00 63 1027.4
20220122130224 33 49 0.0 0.0 0.00 0.00 0.00 63 1027.4
20220122125718 33 32 0.0 0.0 0.00 0.00 0.00 63 1027.2
20220122125217 33 53 0.0 0.0 0.00 0.00 0.00 63 1027.1
20220122124717 33 49 0.0 0.0 0.00 0.00 0.00 63 1027.1
20220122124218 33 51 0.0 0.0 0.00 0.00 0.00 63 1027.1
20220122123718 33 58 0.0 0.0 0.00 0.00 0.00 63 1027.0
20220122123218 33 33 0.0 0.0 0.00 0.00 0.00 63 1027.0
20220122122715 33 51 0.0 0.0 0.00 0.00 0.00 62 1026.9
20220122122213 33 35 0.0 0.0 0.00 0.00 0.00 62 1026.8
20220122121714 33 43 0.0 0.0 0.00 0.00 0.00 62 1026.7
20220122121215 34 23 0.0 0.0 0.00 0.00 0.00 62 1026.7
20220122120712 34 18 0.0 0.0 0.00 0.00 0.00 61 1026.6
20220122120213 34 20 0.0 0.0 0.00 0.00 0.00 61 1026.5
20220122115710 34 37 0.0 0.0 0.00 0.00 0.00 62 1026.5
20220122115210 34 42 0.0 0.0 0.00 0.00 0.00 62 1026.5
20220122114709 34 60 0.0 0.0 0.00 0.00 0.00 62 1026.5
20220122114208 34 51 0.0 0.0 0.00 0.00 0.00 62 1026.5
20220122113705 34 42 0.0 0.0 0.00 0.00 0.00 63 1026.5
20220122113207 34 56 0.0 0.0 0.00 0.00 0.00 62 1026.4
20220122112704 34 26 0.0 0.0 0.00 0.00 0.00 62 1026.3
20220122112202 34 42 0.0 0.0 0.00 0.00 0.00 62 1026.2
20220122111702 34 54 0.0 0.0 0.00 0.00 0.00 63 1026.1
20220122111203 34 32 0.0 0.0 0.00 0.00 0.00 63 1026.0
20220122110701 34 359 0.0 0.0 0.00 0.00 0.00 63 1026.0
20220122110200 34 21 0.0 0.0 0.00 0.00 0.00 63 1025.9
20220122105650 34 326 0.0 0.0 0.00 0.00 0.00 64 1025.9
20220122105148 34 30 0.0 0.0 0.00 0.00 0.00 64 1026.0
20220122104647 34 50 0.0 0.0 0.00 0.00 0.00 64 1026.0
20220122104144 34 46 0.0 0.0 0.00 0.00 0.00 63 1025.9
20220122103644 35 49 0.0 0.0 0.00 0.00 0.00 63 1025.9
20220122103137 35 49 0.0 0.0 0.00 0.00 0.00 63 1025.9
20220122102638 35 45 0.0 0.0 0.00 0.00 0.00 62 1025.8
20220122102135 35 33 0.0 4.0 0.00 0.00 0.00 63 1025.9
20220122101632 35 7 0.0 4.0 0.00 0.00 0.00 62 1025.7
20220122101132 35 44 0.0 0.0 0.00 0.00 0.00 62 1025.7
20220122100629 35 58 0.0 0.0 0.00 0.00 0.00 62 1025.7
20220122100128 35 37 0.0 0.0 0.00 0.00 0.00 62 1025.7
20220122095627 35 54 0.0 0.0 0.00 0.00 0.00 61 1025.7
20220122095130 35 51 0.0 0.0 0.00 0.00 0.00 61 1025.7
20220122094626 35 42 0.0 0.0 0.00 0.00 0.00 60 1025.5
20220122094125 36 39 0.0 1.0 0.00 0.00 0.00 60 1025.3
20220122093619 36 36 0.0 1.0 0.00 0.00 0.00 59 1025.4
20220122093122 36 32 0.0 0.0 0.00 0.00 0.00 59 1025.5
20220122092619 36 25 0.0 0.0 0.00 0.00 0.00 59 1025.5
20220122092120 36 46 0.0 0.0 0.00 0.00 0.00 59 1025.4
20220122091620 36 43 0.0 0.0 0.00 0.00 0.00 59 1025.4
20220122091121 36 34 0.0 0.0 0.00 0.00 0.00 59 1025.4
20220122090616 36 38 0.0 0.0 0.00 0.00 0.00 58 1025.4
20220122090116 36 44 0.0 0.0 0.00 0.00 0.00 58 1025.3
20220122085616 36 41 0.0 0.0 0.00 0.00 0.00 58 1025.3
20220122085117 36 47 0.0 0.0 0.00 0.00 0.00 59 1025.3
20220122084617 36 39 0.0 0.0 0.00 0.00 0.00 58 1025.3
20220122084115 36 39 0.0 0.0 0.00 0.00 0.00 58 1025.4
20220122083608 36 37 0.0 0.0 0.00 0.00 0.00 57 1025.4
20220122083107 37 32 0.0 0.0 0.00 0.00 0.00 57 1025.2
20220122082605 37 44 0.0 0.0 0.00 0.00 0.00 57 1025.2
20220122082102 37 51 0.0 0.0 0.00 0.00 0.00 57 1025.2
20220122081603 37 47 0.0 0.0 0.00 0.00 0.00 57 1025.3
20220122081058 37 32 0.0 0.0 0.00 0.00 0.00 56 1025.4
20220122080556 37 62 0.0 0.0 0.00 0.00 0.00 56 1025.4
20220122080056 37 23 0.0 0.0 0.00 0.00 0.00 56 1025.3
20220122075558 37 44 0.0 0.0 0.00 0.00 0.00 56 1025.2
20220122075056 38 46 0.0 0.0 0.00 0.00 0.00 56 1025.1
20220122074556 38 49 0.0 0.0 0.00 0.00 0.00 55 1025.2
20220122074049 38 28 0.0 0.0 0.00 0.00 0.00 55 1025.2
20220122073546 38 23 0.0 1.0 0.00 0.00 0.00 55 1025.1
20220122073045 38 63 0.0 1.0 0.00 0.00 0.00 55 1025.0
20220122072544 38 7 0.0 0.0 0.00 0.00 0.00 55 1024.9
20220122072046 38 55 0.0 0.0 0.00 0.00 0.00 55 1025.0
20220122071537 38 39 0.0 1.0 0.00 0.00 0.00 54 1025.0
20220122071035 38 330 0.0 1.0 0.00 0.00 0.00 55 1024.8
20220122070537 38 37 0.0 1.0 0.00 0.00 0.00 55 1024.8
20220122070036 38 45 0.0 1.0 0.00 0.00 0.00 55 1024.7
20220122065536 38 50 0.0 1.0 0.00 0.00 0.00 55 1024.8
20220122065036 38 46 0.0 1.0 0.00 0.00 0.00 56 1025.0
20220122064533 38 53 0.0 1.0 0.00 0.00 0.00 56 1025.0
20220122064031 38 34 0.0 0.0 0.00 0.00 0.00 57 1025.0
20220122063530 38 358 0.0 0.0 0.00 0.00 0.00 57 1025.0
20220122063030 38 88 0.0 0.0 0.00 0.00 0.00 57 1025.0
20220122062529 38 34 0.0 0.0 0.00 0.00 0.00 57 1025.1
20220122062030 38 332 0.0 0.0 0.00 0.00 0.00 57 1025.2
20220122061529 38 46 0.0 0.0 0.00 0.00 0.00 57 1025.2
20220122061025 38 42 0.0 0.0 0.00 0.00 0.00 57 1025.1
20220122060526 39 41 0.0 0.0 0.00 0.00 0.00 57 1025.1
20220122060024 39 54 0.0 0.0 0.00 0.00 0.00 56 1025.1
20220122055522 39 49 0.0 0.0 0.00 0.00 0.00 56 1025.1
20220122055021 39 37 0.0 0.0 0.00 0.00 0.00 56 1025.2
20220122054514 39 75 0.0 0.0 0.00 0.00 0.00 56 1025.4
20220122054016 39 43 0.0 0.0 0.00 0.00 0.00 57 1025.5
20220122053515 39 37 0.0 3.0 0.00 0.00 0.00 57 1025.4
20220122053015 39 62 0.0 3.0 0.00 0.00 0.00 58 1025.4
20220122052515 39 42 0.0 0.0 0.00 0.00 0.00 60 1025.4
20220122052015 38 41 0.0 0.0 0.00 0.00 0.00 62 1025.4
20220122051508 38 51 0.0 0.0 0.00 0.00 0.00 64 1025.3
20220122051007 38 65 0.0 0.0 0.00 0.00 0.00 64 1025.2
20220122050507 37 65 0.0 0.0 0.00 0.00 0.00 64 1025.1
20220122050004 38 65 0.0 0.0 0.00 0.00 0.00 63 1025.1
20220122045507 38 65 0.0 0.0 0.00 0.00 0.00 62 1025.2
20220122044956 38 65 0.0 0.0 0.00 0.00 0.00 62 1025.2
20220122044456 39 65 0.0 0.0 0.00 0.00 0.00 62 1025.3
20220122043954 39 65 0.0 0.0 0.00 0.00 0.00 62 1025.2
20220122043452 39 65 0.0 0.0 0.00 0.00 0.00 62 1025.2
20220122042952 38 65 0.0 0.0 0.00 0.00 0.00 63 1025.2
20220122042446 38 65 0.0 0.0 0.00 0.00 0.00 62 1025.2
20220122041944 38 65 0.0 0.0 0.00 0.00 0.00 61 1025.2
20220122041442 39 65 0.0 0.0 0.00 0.00 0.00 60 1025.3
20220122040940 39 65 0.0 0.0 0.00 0.00 0.00 59 1025.3
20220122040440 39 65 0.0 0.0 0.00 0.00 0.00 58 1025.4
20220122035934 40 65 0.0 0.0 0.00 0.00 0.00 58 1025.4
20220122035433 40 65 0.0 0.0 0.00 0.00 0.00 57 1025.4
20220122034930 40 65 0.0 0.0 0.00 0.00 0.00 56 1025.3
20220122034428 40 65 0.0 0.0 0.00 0.00 0.00 56 1025.2
20220122033929 40 65 0.0 0.0 0.00 0.00 0.00 55 1025.2
20220122033420 41 65 0.0 0.0 0.00 0.00 0.00 55 1025.0
20220122032920 41 65 0.0 0.0 0.00 0.00 0.00 54 1025.0
20220122032422 41 65 0.0 0.0 0.00 0.00 0.00 53 1025.0
20220122031921 41 65 0.0 0.0 0.00 0.00 0.00 53 1025.0
20220122031421 41 65 0.0 0.0 0.00 0.00 0.00 53 1025.0
20220122030921 41 65 0.0 0.0 0.00 0.00 0.00 53 1025.0
20220122030416 41 65 0.0 0.0 0.00 0.00 0.00 53 1025.0
20220122025914 42 65 0.0 0.0 0.00 0.00 0.00 53 1025.0
20220122025414 42 65 0.0 0.0 0.00 0.00 0.00 53 1025.0
20220122024910 42 65 0.0 0.0 0.00 0.00 0.00 52 1024.9
20220122024408 42 65 0.0 0.0 0.00 0.00 0.00 53 1024.9
20220122023909 41 51 0.0 0.0 0.00 0.00 0.00 53 1024.9
20220122023406 41 50 0.0 0.0 0.00 0.00 0.00 54 1024.9
20220122022906 41 53 0.0 0.0 0.00 0.00 0.00 54 1024.9
20220122022405 40 53 0.0 0.0 0.00 0.00 0.00 55 1024.9
20220122021904 40 46 0.0 0.0 0.00 0.00 0.00 56 1024.8
20220122021402 40 46 0.0 0.0 0.00 0.00 0.00 57 1024.8
20220122020900 40 46 0.0 0.0 0.00 0.00 0.00 58 1024.7
20220122020355 40 46 0.0 0.0 0.00 0.00 0.00 59 1024.8
20220122015853 39 46 0.0 0.0 0.00 0.00 0.00 60 1024.8
20220122015352 38 20 0.0 0.0 0.00 0.00 0.00 61 1024.7
20220122014852 39 20 0.0 0.0 0.00 0.00 0.00 59 1024.7
20220122014348 39 20 0.0 0.0 0.00 0.00 0.00 58 1024.5
20220122013847 39 20 0.0 0.0 0.00 0.00 0.00 57 1024.5
20220122013344 40 20 0.0 0.0 0.00 0.00 0.00 56 1024.4
20220122012842 40 20 0.0 0.0 0.00 0.00 0.00 55 1024.3
20220122012340 41 20 0.0 0.0 0.00 0.00 0.00 52 1024.2
20220122011841 41 20 0.0 0.0 0.00 0.00 0.00 50 1024.2
20220122011339 42 20 0.0 0.0 0.00 0.00 0.00 48 1024.1
20220122010838 43 20 0.0 0.0 0.00 0.00 0.00 48 1024.0
20220122010334 43 20 0.0 0.0 0.00 0.00 0.00 48 1023.9
20220122005839 44 20 0.0 0.0 0.00 0.00 0.00 46 1023.8
20220122005335 44 20 0.0 0.0 0.00 0.00 0.00 45 1023.8
20220122004835 44 20 0.0 0.0 0.00 0.00 0.00 44 1023.7
20220122004332 44 20 0.0 0.0 0.00 0.00 0.00 44 1023.6
20220122003832 45 20 0.0 0.0 0.00 0.00 0.00 43 1023.6
20220122003329 45 20 0.0 0.0 0.00 0.00 0.00 42 1023.5
20220122002829 45 18 0.0 0.0 0.00 0.00 0.00 42 1023.4
20220122002329 46 8 0.0 0.0 0.00 0.00 0.00 41 1023.3
20220122001829 46 3 0.0 0.0 0.00 0.00 0.00 40 1023.3
20220122001324 46 37 0.0 0.0 0.00 0.00 0.00 40 1023.2
20220122000822 47 36 0.0 0.0 0.00 0.00 0.00 40 1023.1
20220122000324 47 34 0.0 0.0 0.00 0.00 0.00 39 1023.0
20220121235823 47 65 0.0 0.0 0.00 0.00 0.00 38 1022.9
20220121235323 48 58 0.0 0.0 0.00 0.00 0.00 38 1023.0
20220121234823 48 58 0.0 0.0 0.00 0.00 0.00 37 1023.0
20220121234320 48 31 0.0 0.0 0.00 0.00 0.00 37 1022.9
20220121233817 49 353 0.0 0.0 0.00 0.00 0.00 36 1022.8
20220121233321 49 349 0.0 0.0 0.00 0.00 0.00 35 1022.7
20220121232819 49 43 0.0 0.0 0.00 0.00 0.00 35 1022.7
20220121232317 50 64 0.0 1.0 0.00 0.00 0.00 34 1022.6
20220121231818 50 31 0.0 1.0 0.00 0.00 0.00 33 1022.6
20220121231316 51 25 0.0 0.0 0.00 0.00 0.00 33 1022.6
20220121230814 51 38 0.0 0.0 0.00 0.00 0.00 34 1022.5
20220121230316 51 11 0.0 0.0 0.00 0.00 0.00 33 1022.5
20220121225814 51 1 0.0 0.0 0.00 0.00 0.00 33 1022.5
20220121225315 51 58 0.0 0.0 0.00 0.00 0.00 32 1022.5
20220121224815 51 70 0.0 0.0 0.00 0.00 0.00 33 1022.4
20220121224315 51 44 0.0 1.0 0.00 0.00 0.00 33 1022.4
20220121223812 51 324 0.0 1.0 0.00 0.00 0.00 32 1022.4
20220121223312 51 63 0.0 0.0 0.00 0.00 0.00 32 1022.4
20220121222810 50 37 0.0 2.0 0.00 0.00 0.00 31 1022.4
20220121222307 51 35 0.0 4.0 0.00 0.00 0.00 32 1022.4
20220121221806 51 328 0.0 4.0 0.00 0.00 0.00 32 1022.3
20220121221306 51 34 0.0 1.0 0.00 0.00 0.00 31 1022.3
20220121220807 51 315 0.0 0.0 0.00 0.00 0.00 31 1022.4
20220121220306 51 40 0.0 0.0 0.00 0.00 0.00 33 1022.5
20220121215806 51 293 0.0 0.0 0.00 0.00 0.00 32 1022.5
20220121215307 50 45 0.0 4.0 0.00 0.00 0.00 32 1022.5
20220121214802 50 52 0.0 4.0 0.00 0.00 0.00 32 1022.5
20220121214302 50 28 0.0 0.0 0.00 0.00 0.00 33 1022.6
20220121213803 50 18 0.0 0.0 0.00 0.00 0.00 32 1022.6
20220121213303 50 38 0.0 3.0 0.00 0.00 0.00 33 1022.7
20220121212805 50 354 0.0 3.0 0.00 0.00 0.00 33 1022.7
20220121212305 50 358 0.0 0.0 0.00 0.00 0.00 32 1022.7
20220121211758 50 338 0.0 0.0 0.00 0.00 0.00 33 1022.8
20220121211300 50 324 0.0 0.0 0.00 0.00 0.00 33 1022.7
20220121210800 49 314 0.0 0.0 0.00 0.00 0.00 33 1022.8
20220121210258 49 320 0.0 2.0 0.00 0.00 0.00 33 1022.8
20220121205758 49 36 0.0 2.0 0.00 0.00 0.00 32 1022.8
20220121205300 49 319 0.0 3.0 0.00 0.00 0.00 32 1022.9
20220121204754 49 29 0.0 3.0 0.00 0.00 0.00 32 1022.9
20220121204256 49 351 0.0 0.0 0.00 0.00 0.00 34 1023.0
20220121203756 49 300 0.0 0.0 0.00 0.00 0.00 33 1023.0
20220121203254 49 37 0.0 1.0 0.00 0.00 0.00 34 1023.1
20220121202755 49 278 0.0 1.0 0.00 0.00 0.00 34 1023.1
20220121202256 49 296 0.0 0.0 0.00 0.00 0.00 34 1023.1
20220121201750 49 347 0.0 3.0 0.00 0.00 0.00 34 1023.2
20220121201250 48 44 0.0 3.0 0.00 0.00 0.00 35 1023.4
20220121200749 48 317 0.0 3.0 0.00 0.00 0.00 35 1023.5
20220121200250 48 36 0.0 1.0 0.00 0.00 0.00 35 1023.4
20220121195750 47 3 0.0 2.0 0.00 0.00 0.00 35 1023.4
20220121195252 47 324 0.0 2.0 0.00 0.00 0.00 34 1023.3
20220121194745 48 300 0.0 0.0 0.00 0.00 0.00 34 1023.5
20220121194246 47 335 0.0 0.0 0.00 0.00 0.00 36 1023.6
20220121193746 47 346 0.0 4.0 0.00 0.00 0.00 34 1023.5
20220121193245 47 321 0.0 4.0 0.00 0.00 0.00 35 1023.6
20220121192748 47 13 0.0 2.0 0.00 0.00 0.00 37 1023.9
20220121192247 47 343 0.0 1.0 0.00 0.00 0.00 36 1023.7
20220121191742 46 323 0.0 1.0 0.00 0.00 0.00 34 1024.0
20220121191243 46 31 0.0 0.0 0.00 0.00 0.00 36 1024.1
20220121190740 46 329 0.0 0.0 0.00 0.00 0.00 38 1023.9
20220121190243 45 57 0.0 0.0 0.00 0.00 0.00 39 1024.3
20220121185741 45 326 0.0 3.0 0.00 0.00 0.00 39 1024.4
20220121185241 44 329 0.0 3.0 0.00 0.00 0.00 41 1024.4
20220121184740 44 330 0.0 1.0 0.00 0.00 0.00 42 1024.6
20220121184238 44 316 0.0 9.0 0.00 0.00 0.00 42 1024.7
20220121183735 43 323 0.0 9.0 0.00 0.00 0.00 42 1024.9
20220121183237 44 323 0.0 1.0 0.00 0.00 0.00 42 1025.0
20220121182735 43 55 0.0 1.0 0.00 0.00 0.00 43 1025.1